[[{"header":{"parameterUnit":"m.s-1","parameterCategory":1,"la1":30.2991,"la2":30.254,"lo1":-89.0895,"lo2":-89.0444,"dy":0.0017,"dx":0.0017,"nx":28,"ny":28,"refTime":"2025-11-30T03:00:00:Z","depth":0,"parameterNumber":2,"parameterNumberName":"U-component_of_WINDS"},"data":[0,0,0,0,0,0,0,0,0,0,0,0,0,0,0,0,0,0,0,0,0,0,0,0,0,0,0,0,0,0,0,0,0,0,0,0,0,0,0,0,0,0,0,0,0,0,0,0,0,0,0,0,0,0,0,0,0,0,-3.0085,-3.0087,0,-3.0309,-3.0311,-3.0314,-3.0341,-3.0339,-3.0336,-3.0334,-3.0556,-3.0564,-3.0572,0,0,0,0,0,0,0,0,0,0,0,0,0,-2.9675,-2.9682,-3.0085,-3.0087,-3.009,-3.0308,-3.0311,-3.0314,-3.0341,-3.0338,-3.0336,-3.0333,-3.0554,-3.0563,-3.0572,0,0,0,0,0,0,0,0,0,0,0,0,0,-2.9871,-2.9685,-3.0084,-3.013,-3.0136,-3.0308,-3.0311,-3.0315,-3.0342,-3.0338,-3.0335,-3.0332,-3.055,-3.0562,-3.0574,-3.0712,0,0,-3.061,-3.0615,0,0,0,0,0,0,0,0,-2.986,-2.9886,-3.0121,-3.0127,-3.0135,-3.0294,-3.0248,-3.0448,-3.0342,-3.0264,-3.0334,-3.0331,-3.0471,-3.0489,-3.0538,-3.0723,-3.0732,-3.0611,-3.0618,-3.0623,-3.0627,0,0,0,0,0,0,0,-2.9846,-2.9877,-3.0173,-3.0124,-3.0133,-3.0138,-3.0162,-3.0286,-3.0382,-3.027,-3.0273,-3.0299,-3.0474,-3.0526,-3.0543,-3.0735,-3.0611,-3.0621,-3.0629,-3.0633,-3.1046,-3.105,0,0,0,0,0,0,-2.9825,-2.9865,-3.0166,-3.018,-2.9987,-3.0148,-3.0175,-3.0246,-3.0381,-3.0399,-3.0302,-3.03,-3.0508,-3.0529,-3.0551,-3.0724,-3.0623,-3.0634,-3.0641,-3.1043,-3.1047,-3.1051,0,0,0,0,0,0,-2.9816,-2.9852,-3.0157,-3.0023,-3.0063,-3.0158,-3.0238,-3.0252,-3.0304,-3.0405,-3.0422,-3.0338,-3.0506,-3.0535,-3.0673,-3.0732,-3.064,-3.0651,-3.1038,-3.1044,-3.1049,-3.1069,0,0,0,0,0,0,-2.9804,-2.9848,-2.9903,-3.0024,-3.007,-3.0277,-3.0241,-3.0259,-3.0326,-3.0325,-3.0444,-3.046,-3.0506,-3.0655,-3.0685,-3.0747,-3.066,-3.1033,-3.1041,-3.1047,-3.1064,-3.1075,-3.1085,0,0,0,0,0,-2.979,-2.9898,-2.9906,-2.9942,-3.0141,-3.028,-3.0306,-3.0358,-3.033,-3.0386,-3.0451,-3.0456,-3.0721,-3.0669,-3.0703,-3.0769,-3.103,-3.1039,-3.1047,-3.1059,-3.1073,-3.1084,0,0,0,0,0,0,-2.9778,-2.9915,-2.9925,-3.0076,-3.0167,-3.0284,-3.0356,-3.037,-3.0469,-3.0464,-3.0522,-3.0549,-3.0685,-3.074,-3.0681,-3.0911,-3.0872,-3.0888,-3.087,-3.0884,-3.0894,-3.0878,-3.067,0,0,0,0,0,-2.9794,-2.9898,-3.001,-3.0132,-3.0178,-3.0259,-3.0321,-3.0355,-3.0449,-3.0487,-3.0562,-3.0652,-3.0756,-3.0823,-3.0923,-3.1072,-3.1098,-3.1134,-3.1144,-3.1152,-3.1165,-3.1249,-3.1267,-3.108,-3.108,-3.1079,0,0,-2.9826,-2.9913,-2.9975,-3.0133,-3.0207,-3.0312,-3.0291,-3.0402,-3.048,-3.0503,-3.064,-3.0698,-3.0802,-3.0947,-3.1014,-3.0997,-3.1223,-3.1163,-3.1169,-3.1178,-3.126,-3.1277,-3.1293,-3.1086,-3.1084,-3.1084,0,0,-2.9939,-3.0015,-3.0127,-3.0202,-3.0316,-3.0369,-3.0396,-3.0512,-3.0553,-3.0691,-3.0711,-3.0804,-3.098,-3.1055,-3.1116,-3.1259,-3.1268,-3.1289,-3.1344,-3.1425,-3.144,-3.1453,-3.1505,-3.1523,-3.1302,-3.1302,-3.1302,0,-2.9964,-3.0125,-3.0181,-3.0294,-3.0362,-3.0391,-3.0504,-3.0573,-3.0712,-3.0759,-3.0738,-3.0963,-3.1035,-3.1198,-3.1233,-3.1281,-3.1313,-3.1276,-3.1433,-3.1447,-3.1461,-3.1511,-3.153,-3.1304,-3.1304,-3.1304,-3.1303,0,-3.0151,-3.0262,-3.0338,-3.0476,-3.0553,-3.0665,-3.0736,-3.0808,-3.0834,-3.0889,-3.103,-3.1118,-3.1238,-3.1278,-3.1303,-3.1446,-3.1432,-3.1422,-3.1384,-3.148,-3.1528,-3.1547,-3.1307,-3.1306,-3.1306,-3.1305,0,0,-3.0262,-3.0432,-3.0459,-3.0522,-3.065,-3.0736,-3.0849,-3.0969,-3.1029,-3.1124,-3.122,-3.137,-3.1363,-3.1432,-3.1465,-3.1536,-3.1646,-3.1518,-3.1521,-3.154,-3.1808,-3.1816,-3.1837,-3.1652,-3.1656,-3.1659,-3.18,0,-3.0391,-3.0596,-3.065,-3.0823,-3.0927,-3.0956,-3.1054,-3.1142,-3.1197,-3.1292,-3.1351,-3.1457,-3.1438,-3.1481,-3.1552,-3.1617,-3.17,-3.1608,-3.1741,-3.1745,-3.1715,-3.1862,-3.187,-3.1999,-3.1819,-3.1822,-3.1825,0,-3.0568,-3.0671,-3.0855,-3.0972,-3.1017,-3.1105,-3.122,-3.131,-3.1411,-3.1445,-3.1524,-3.1552,-3.1669,-3.1625,-3.1787,-3.1723,-3.178,-3.1821,-3.1827,-3.1842,-3.1791,-3.1882,-3.2041,-3.2061,-3.1854,-3.1852,-3.185,0,-3.0633,-3.0816,-3.0951,-3.1004,-3.1143,-3.1204,-3.1264,-3.1362,-3.1431,-3.1531,-3.1576,-3.1687,-3.1748,-3.1832,-3.1889,-3.1852,-3.2047,-3.2007,-3.2078,-3.2077,-3.2118,-3.2115,-3.229,-3.2154,-3.2154,-3.2153,-3.2153,0,-3.0771,-3.0883,-3.0982,-3.1065,-3.1191,-3.1252,-3.1374,-3.1435,-3.1522,-3.1616,-3.1646,-3.1733,-3.1803,-3.1899,-3.1943,-3.2071,-3.2098,-3.2128,-3.2139,-3.2127,-3.2123,-3.2165,-3.2158,-3.2158,-3.2157,-3.2156,-3.2155,0,-3.0864,-3.0935,-3.1084,-3.1205,-3.1237,-3.1325,-3.1427,-3.1508,-3.1564,-3.1683,-3.1714,-3.1802,-3.1917,-3.1982,-3.2125,-3.2155,-3.2298,-3.2303,-3.2265,-3.227,-3.2338,-3.2331,-3.2547,-3.2578,-3.242,-3.2422,-3.2423,0,-3.0948,-3.1036,-3.1166,-3.1233,-3.1295,-3.1402,-3.1474,-3.1537,-3.161,-3.1732,-3.1798,-3.1915,-3.2013,-3.2195,-3.227,-3.238,-3.2389,-3.2457,-3.2406,-3.2391,-3.2391,-3.2386,-3.2395,-3.2466,-3.2467,-3.2469,-3.2469,0,-3.1091,-3.1122,-3.1226,-3.1343,-3.1428,-3.1522,-3.1615,-3.1668,-3.1746,-3.1826,-3.1946,-3.2022,-3.2171,-3.2287,-3.2403,-3.2463,-3.248,-3.2485,-3.2508,-3.2496,-3.2471,-3.2487,-3.229,-3.248,-3.2479,-3.2478,-3.2478,-3.2477,-3.1183,-3.1263,-3.1368,-3.1483,-3.156,-3.1647,-3.173,-3.1798,-3.1899,-3.2027,-3.2058,-3.2184,-3.2282,-3.2442,-3.2504,-3.2603,-3.259,-3.2622,-3.2631,-3.2638,-3.2641,-3.2455,-3.2624,-3.2624,-3.2623,-3.2623,-3.2623,0,-3.1328,-3.1398,-3.1503,-3.1634,-3.1724,-3.1735,-3.1839,-3.1913,-3.2024,-3.2116,-3.2213,-3.2351,-3.2464,-3.2549,-3.2664,-3.2726,-3.2737,-3.2755,-3.2751,-3.2765,-3.2645,-3.2615,-3.2745,-3.2744,-3.2744,-3.2744,-3.2744,-3.2744,-3.1414,-3.155,-3.1594,-3.1768,-3.1837,-3.1963,-3.2022,-3.2102,-3.2176,-3.233,-3.2425,-3.2481,-3.257,-3.2692,-3.2796,-3.2818,-3.2859,-3.2876,-3.2899,-3.2786,-3.2773,-3.276,-3.2732,-3.2885,-3.2885,-3.3011,-3.3012,-3.3013]},{"header":{"parameterUnit":"m.s-1","parameterCategory":1,"la1":30.2991,"la2":30.254,"lo1":-89.0895,"lo2":-89.0444,"dy":0.0017,"dx":0.0017,"nx":28,"ny":28,"refTime":"2025-11-30T03:00:00:Z","depth":0,"parameterNumber":3,"parameterNumberName":"V-component_of_WINDS"},"data":[0,0,0,0,0,0,0,0,0,0,0,0,0,0,0,0,0,0,0,0,0,0,0,0,0,0,0,0,0,0,0,0,0,0,0,0,0,0,0,0,0,0,0,0,0,0,0,0,0,0,0,0,0,0,0,0,0,0,-3.9879,-3.9881,0,-4.0085,-4.0087,-4.0089,-4.0157,-4.0156,-4.0155,-4.0154,-4.0358,-4.0365,-4.0371,0,0,0,0,0,0,0,0,0,0,0,0,0,-3.9537,-3.9543,-3.9878,-3.9881,-3.9883,-4.0084,-4.0087,-4.009,-4.0157,-4.0156,-4.0155,-4.0154,-4.0356,-4.0364,-4.0371,0,0,0,0,0,0,0,0,0,0,0,0,0,-3.9708,-3.9545,-3.9878,-3.9941,-3.9949,-4.0084,-4.0087,-4.0091,-4.0157,-4.0156,-4.0155,-4.0153,-4.0354,-4.0363,-4.0372,-4.0457,0,0,-4.0401,-4.0405,0,0,0,0,0,0,0,0,-3.9698,-3.9721,-3.9929,-3.9937,-3.9946,-4.0094,-4.0042,-4.0213,-4.0158,-4.0078,-4.0154,-4.0153,-4.0271,-4.0287,-4.0328,-4.0466,-4.0475,-4.0402,-4.0407,-4.0412,-4.0414,0,0,0,0,0,0,0,-3.9686,-3.9712,-3.996,-3.9932,-3.9943,-3.9958,-3.9981,-4.0074,-4.0179,-4.0085,-4.009,-4.0114,-4.0275,-4.0319,-4.0334,-4.0478,-4.0402,-4.041,-4.0416,-4.0419,-4.0696,-4.0697,0,0,0,0,0,0,-3.9665,-3.9702,-3.9953,-3.9966,-3.9817,-3.9965,-3.999,-4.0048,-4.0178,-4.0197,-4.0115,-4.0116,-4.0304,-4.0323,-4.0341,-4.045,-4.0411,-4.042,-4.0426,-4.0694,-4.0696,-4.0698,0,0,0,0,0,0,-3.9657,-3.9687,-3.9945,-3.9836,-3.987,-3.9972,-4.0036,-4.0052,-4.0097,-4.0201,-4.022,-4.0141,-4.0304,-4.0328,-4.0428,-4.0458,-4.0424,-4.0433,-4.0692,-4.0695,-4.0697,-4.0666,0,0,0,0,0,0,-3.9647,-3.9683,-3.9718,-3.9836,-3.9875,-4.003,-4.0038,-4.0057,-4.0113,-4.0117,-4.0231,-4.0248,-4.0304,-4.0414,-4.0437,-4.047,-4.044,-4.069,-4.0693,-4.0696,-4.0665,-4.0667,-4.067,0,0,0,0,0,-3.9635,-3.9699,-3.9719,-3.9749,-3.9921,-4.0032,-4.0054,-4.012,-4.0115,-4.015,-4.0218,-4.0244,-4.045,-4.0423,-4.0451,-4.0486,-4.0688,-4.0692,-4.0696,-4.0664,-4.0667,-4.0669,0,0,0,0,0,0,-3.958,-3.9716,-3.974,-3.9845,-3.9926,-4.0043,-4.0089,-4.012,-4.0203,-4.0203,-4.0278,-4.0303,-4.0398,-4.0452,-4.042,-4.0575,-4.057,-4.058,-4.0537,-4.0541,-4.0543,-4.0528,-4.0448,0,0,0,0,0,-3.958,-3.9661,-3.9775,-3.9856,-3.9896,-3.9985,-4.0036,-4.008,-4.0166,-4.0201,-4.0275,-4.0357,-4.044,-4.0493,-4.0575,-4.0673,-4.0698,-4.0711,-4.0713,-4.0714,-4.0722,-4.0778,-4.0785,-4.0711,-4.0711,-4.0711,0,0,-3.9581,-3.9666,-3.9712,-3.9847,-3.9916,-3.9996,-4.0014,-4.0098,-4.0158,-4.0213,-4.0313,-4.037,-4.0466,-4.0566,-4.0613,-4.0614,-4.0748,-4.0719,-4.0719,-4.0726,-4.0783,-4.079,-4.0796,-4.0713,-4.0713,-4.0712,0,0,-3.9625,-3.9697,-3.9774,-3.9842,-3.9947,-4.0006,-4.0024,-4.0136,-4.0177,-4.028,-4.0323,-4.0393,-4.0535,-4.0602,-4.0654,-4.0724,-4.0752,-4.0748,-4.076,-4.0814,-4.082,-4.0825,-4.0851,-4.0859,-4.0755,-4.0755,-4.0755,0,-3.9613,-3.9738,-3.9808,-3.9892,-3.995,-4.0005,-4.0083,-4.0145,-4.0269,-4.0308,-4.0307,-4.0487,-4.0555,-4.0671,-4.0689,-4.0729,-4.0751,-4.0736,-4.0814,-4.082,-4.0826,-4.0851,-4.086,-4.0754,-4.0754,-4.0754,-4.0754,0,-3.9718,-3.9804,-3.9853,-3.9976,-4.0039,-4.0118,-4.0199,-4.0255,-4.0292,-4.0351,-4.0454,-4.0538,-4.0638,-4.0669,-4.0705,-4.0791,-4.0788,-4.0799,-4.0796,-4.0831,-4.0856,-4.0866,-4.0752,-4.0753,-4.0753,-4.0753,0,0,-3.9734,-3.9895,-3.9912,-3.9968,-4.0087,-4.0154,-4.0235,-4.0336,-4.0383,-4.0466,-4.0536,-4.0655,-4.0667,-4.0726,-4.077,-4.0818,-4.0868,-4.0824,-4.0827,-4.083,-4.0968,-4.096,-4.097,-4.0887,-4.0889,-4.0891,-4.0961,0,-3.9794,-3.9945,-4.0011,-4.0131,-4.0211,-4.0265,-4.0336,-4.0415,-4.0472,-4.0546,-4.0607,-4.0691,-4.07,-4.0736,-4.0785,-4.0852,-4.0897,-4.0847,-4.0952,-4.0955,-4.0928,-4.0983,-4.0975,-4.1036,-4.0971,-4.0972,-4.0974,0,-3.9885,-3.9972,-4.0101,-4.0212,-4.0248,-4.031,-4.0409,-4.048,-4.057,-4.0608,-4.0675,-4.0717,-4.0803,-4.0793,-4.0913,-4.0877,-4.0923,-4.0962,-4.0966,-4.0979,-4.0967,-4.0998,-4.1057,-4.1067,-4.0989,-4.0988,-4.0987,0,-3.9886,-4.0034,-4.0131,-4.0178,-4.0308,-4.0351,-4.0407,-4.0497,-4.0554,-4.0638,-4.0676,-4.0768,-4.0819,-4.0888,-4.0954,-4.0941,-4.1067,-4.1062,-4.11,-4.1098,-4.1125,-4.1122,-4.1193,-4.1152,-4.1152,-4.1152,-4.1152,0,-3.9947,-4.0024,-4.0134,-4.0193,-4.028,-4.0354,-4.0438,-4.0497,-4.0576,-4.0647,-4.0697,-4.0762,-4.0845,-4.092,-4.0971,-4.1062,-4.1084,-4.1116,-4.1129,-4.1112,-4.1108,-4.1144,-4.1142,-4.1155,-4.1154,-4.1154,-4.1153,0,-3.9963,-4.004,-4.0149,-4.0264,-4.0295,-4.0354,-4.0452,-4.0511,-4.0569,-4.0658,-4.0683,-4.0775,-4.0866,-4.0938,-4.1055,-4.109,-4.1186,-4.1199,-4.1156,-4.1163,-4.1197,-4.1193,-4.1294,-4.1311,-4.1257,-4.1258,-4.1258,0,-3.9998,-4.0059,-4.0181,-4.0234,-4.029,-4.0373,-4.0432,-4.0505,-4.0564,-4.0672,-4.0718,-4.0812,-4.0893,-4.1035,-4.111,-4.12,-4.1217,-4.1247,-4.1231,-4.1213,-4.1219,-4.1215,-4.1222,-4.1248,-4.1249,-4.1249,-4.1249,0,-4.0053,-4.0088,-4.0172,-4.0269,-4.0338,-4.0417,-4.0497,-4.0537,-4.0625,-4.0687,-4.0782,-4.0844,-4.0966,-4.1059,-4.1157,-4.1212,-4.1245,-4.1253,-4.1267,-4.1251,-4.1224,-4.124,-4.1162,-4.1251,-4.125,-4.125,-4.125,-4.125,-4.0081,-4.0138,-4.0233,-4.0325,-4.0393,-4.0467,-4.0529,-4.0596,-4.0677,-4.0783,-4.082,-4.0918,-4.1006,-4.1142,-4.1198,-4.1274,-4.1276,-4.1296,-4.1301,-4.1305,-4.1304,-4.1211,-4.1292,-4.1292,-4.1292,-4.1292,-4.1292,0,-4.014,-4.0204,-4.0287,-4.0399,-4.047,-4.0497,-4.0587,-4.0644,-4.073,-4.0811,-4.0889,-4.0998,-4.1088,-4.1171,-4.1265,-4.131,-4.1327,-4.1332,-4.133,-4.1343,-4.1295,-4.1275,-4.1317,-4.1317,-4.1317,-4.1317,-4.1317,-4.1317,-4.0179,-4.0277,-4.0323,-4.0455,-4.0517,-4.0615,-4.0664,-4.0732,-4.0797,-4.0917,-4.0994,-4.1048,-4.1129,-4.123,-4.1313,-4.1335,-4.1368,-4.1369,-4.1395,-4.1349,-4.1346,-4.1343,-4.1324,-4.1375,-4.1375,-4.1436,-4.1436,-4.1437]}]]